Regional Weather Roundup
Issued by NWS

Home | Current Version | Previous Version | Text Only | Print | Product List | Glossary Off
Versions: 1 2 3 4 5 6 7 8 9 10 11 12 13 14 15 16 17 18 19 20 21 22 23 24 25 26 27 28 29 30 31 32 33 34 35 36 37 38 39 40 41 42 43 44 45 46 47 48 49 50

000
ASUS43 KOAX 280302
RWRNE

WEATHER ROUNDUP FOR NEBRASKA
NATIONAL WEATHER SERVICE OMAHA NE
900 PM CST THU NOV 27 2014

NOTES: SATELLITE DATA IS BEING USED TO AUGMENT CLOUD COVER ABOVE
       12000 FEET.
       "FAIR" INDICATES FEW OR NO CLOUDS BELOW 12,000 FEET WITH NO
       SIGNIFICANT WEATHER AND/OR OBSTRUCTIONS TO VISIBILITY.

  * THESE STATIONS DO NOT REPORT WEATHER SUCH AS RAIN...SNOW OR FOG.

NEZ001>004-019>022-054>056-280400-
NEBRASKA PANHANDLE

CITY           SKY/WX    TMP DP  RH WIND       PRES   REMARKS
SCOTTSBLUFF    CLEAR     37  28  70 CALM      29.99S
ALLIANCE       CLEAR     34  26  72 W14       29.97S WCI  25
CHADRON        CLEAR    N/A N/A N/A SW3       29.95S
SIDNEY         CLEAR     36  26  67 W12       30.03S WCI  28
$$

NEZ057>060-069>072-079>082-280400-
SOUTHWEST NEBRASKA

CITY           SKY/WX    TMP DP  RH WIND       PRES   REMARKS
NORTH PLATTE   CLEAR     29  20  69 CALM      29.99F
IMPERIAL       CLEAR     42  27  55 W13       30.00F
MCCOOK         CLEAR     41  26  55 SW10      29.98F
$$

NEZ005>010-023>029-035>040-094-280400-
NORTH CENTRAL NEBRASKA

CITY           SKY/WX    TMP DP  RH WIND       PRES   REMARKS
VALENTINE      CLEAR     39  26  59 SW14      29.90F WCI  31
BROKEN BOW     CLEAR     28  19  69 SE6       30.00F WCI  22
ORD            CLEAR     28  17  63 SE6       30.04F WCI  22
$$

NEZ041-046>049-061>064-073>077-083>087-280400-
SOUTH CENTRAL NEBRASKA

CITY           SKY/WX    TMP DP  RH WIND       PRES   REMARKS
GRAND ISLAND   CLEAR     31  17  56 SE12      30.07F WCI  22
HASTINGS       CLEAR     31  17  56 S12G21    30.05F WCI  22
KEARNEY *      CLEAR     25  16  68 SE7       30.04F WCI  17
$$

NEZ011>018-030>034-042>045-280400-
NORTHEAST NEBRASKA

CITY           SKY/WX    TMP DP  RH WIND       PRES   REMARKS
NORFOLK        PTCLDY    21  14  74 SE12      30.11F WCI   9
COLUMBUS *     PTCLDY    23  12  63 SE9       30.14F WCI  13
TEKAMAH        CLOUDY    21  12  68 SE14      30.20  WCI   8
$$

NEZ050>053-065>068-078-088>093-280400-
SOUTHEAST NEBRASKA

CITY           SKY/WX    TMP DP  RH WIND       PRES   REMARKS
LINCOLN        CLEAR     27  16  63 SE9       30.19F WCI  18
OMAHA EPPLEY   CLEAR     22  14  71 SE12      30.23F WCI  10
FALLS CITY     CLEAR     25  19  78 SE9       30.26F WCI  15
$$

NEZ044-045-051>053-067-280400-
OMAHA AREA

CITY           SKY/WX    TMP DP  RH WIND       PRES   REMARKS
OMAHA EPPLEY   CLEAR     22  14  71 SE12      30.23F WCI  10
OFFUTT AFB     CLEAR     23  15  70 SE9       30.22F WCI  13
$$


USA.gov is the U.S. government's official web portal to all federal, state and local government web resources and services.